Location: ???????
(55.3754°N, 39.3545°E)
Time: 19:04:14
(UTC+00:00)

GP-B - Pass Details

Date: 14 April 2026
Orbit: 617 x 621 km, 89.9° (Epoch: 19 May)

Event Time Altitude Azimuth Distance (km) Brightness Sun altitude
Rises 23:14:49 0° 360° (N) 2,913 7.5 -20.9°
Reaches altitude 10° 23:17:02 10° 359° (N) 2,002 6.5 -20.7°
Maximum altitude 23:21:26 79° 274° (W) 638 3.0 -20.4°
Enters shadow 23:22:26 52° 198° (SSW) 771 3.1 -20.3°
